Location: Golfo di Oristano
(39.8378°N, 8.4844°E)
Time: 17:47:08
(UTC+00:00)

Daily predictions for brighter satellites

Satellite Brightness Start Highest point End
(mag) Time Altitude Azimuth Time Altitude Azimuth Time Altitude Azimuth
Cosmos 2369 4.1 17:01:57 10° S 17:07:14 43° ESE 17:12:33 10° NE
Cosmos 1939 Rocket 3.3 17:05:13 10° S 17:09:03 66° W 17:12:58 10° NNW
COSMO-SKYMED 1 3.0 17:05:48 10° NNE 17:09:57 42° E 17:14:03 10° S
CZ-2D R/B 3.2 17:09:35 10° SSE 17:13:21 62° ENE 17:17:10 10° N
Cosmos 2219 3.2 17:07:55 10° NNW 17:13:33 72° ENE 17:19:09 10° SSE
Cosmos 1536 Rocket 3.7 17:13:26 10° N 17:17:46 78° W 17:22:04 10° S
Cosmos 1174 3.6 17:15:34 10° S 17:18:56 44° ESE 17:21:56 10° NE
Cosmos 2298 Rocket 4.0 17:14:49 10° S 17:20:04 67° ESE 17:25:20 10° NNE
H-2A R/B 3.6 17:16:32 10° ESE 17:20:07 25° ENE 17:23:39 10° NNE
MOS 1-B 4.4 17:14:50 10° SSE 17:20:38 86° ENE 17:26:27 10° NNW
Cosmos 2360 4.2 17:15:21 10° SSW 17:21:00 76° ESE 17:26:43 10° NNE
Cosmos 1048 Rocket 4.2 17:16:04 10° N 17:21:20 54° ENE 17:26:30 10° SE
Cosmos 1980 Rocket 2.6 17:16:17 10° S 17:21:33 43° ESE 17:26:53 10° NE
CZ-4C R/B 3.4 17:18:41 10° NNE 17:21:54 37° E 17:25:00 10° SSE
Cosmos 389 Rocket 2.6 17:20:04 10° S 17:23:18 45° E 17:26:34 10° NNE
Cosmos 2218 Rocket 4.3 17:17:45 10° SSW 17:23:59 74° W 17:30:20 10° N
Cosmos 2297 Rocket 2.7 17:19:58 10° NNW 17:25:36 67° WSW 17:31:11 10° S
Cosmos 2263 Rocket 3.5 17:23:47 10° N 17:27:41 19° NE 17:31:02 12° E
Cosmos 1821 Rocket 4.1 17:24:02 10° SSE 17:30:13 55° E 17:36:26 10° NNE
X-37B 0.7 17:30:06 10° WSW 17:33:16 76° NNW 17:35:50 15° ENE
deb Chang Zheng 4 3.7 17:29:18 10° S 17:33:28 77° WSW 17:37:41 10° NNW
ARGOS 3.3 17:29:07 10° SE 17:34:18 51° ENE 17:39:32 10° N
Genesis I 3.8 17:33:40 10° NNW 17:37:32 39° NE 17:41:01 12° ESE
IRAS Rocket 4.4 17:33:08 10° NNE 17:38:32 49° ESE 17:43:51 10° S
CZ-2C R/B 2.7 17:37:19 10° SSW 17:39:43 18° SSE 17:41:23 13° SE
CZ-4 R/B 4.4 17:35:53 10° SSE 17:39:56 60° ENE 17:44:02 10° N
Cosmos 1697 Rocket 3.1 17:34:32 10° SSW 17:40:09 67° WNW 17:45:49 10° NNE
Cosmos 1125 Rocket 3.5 17:34:54 10° SSW 17:40:11 84° ESE 17:45:27 10° NNE
Cosmos 1908 3.2 17:39:53 10° S 17:43:43 64° E 17:47:34 10° NNE
Cosmos 371 Rocket 4.5 17:45:43 10° SE 17:49:15 20° E 17:50:04 19° E
Cosmos 1607 4.1 17:43:20 10° NNW 17:49:28 50° NE 17:54:59 12° SE
SJ-11-01 4.2 17:44:56 10° SSE 17:49:34 75° ENE 17:54:16 10° N
Cosmos 1356 4.2 17:46:37 10° NNW 17:49:56 53° W 17:53:14 10° S
Cosmos 2278 3.7 17:45:26 10° S 17:50:57 57° ESE 17:56:31 10° NNE
Cosmos 2227 Rocket 2.9 17:46:28 10° NNW 17:52:00 56° WSW 17:57:30 10° S
Iridium 4 Rocket 3.7 17:49:40 10° NNE 17:53:48 37° E 17:58:12 10° SSE
Landsat 5 4.1 17:50:43 10° N 17:55:00 63° WNW 17:59:23 10° SSW
Cosmos 494 Rocket 3.9 17:49:49 10° NNW 17:55:04 86° ENE 18:00:14 10° SSE
Cosmos 1934 Rocket 4.2 17:50:11 10° SSE 17:55:59 45° E 18:01:44 10° NNE
MOS 1-B Rocket 4.1 17:50:18 10° NNE 17:57:17 90° SSE 18:03:16 10° SSW
CZ-2C R/B 2.9 17:51:48 10° N 17:57:27 81° WNW 18:02:59 10° SSW
SKYMED 2 4.4 17:53:44 10° N 17:57:58 54° WNW 18:02:12 10° SSW
Timation 2 Rocket 4.4 17:52:10 10° NNW 17:59:03 76° WSW 18:05:43 10° SSE
Okean O Rocket 2.1 17:55:56 10° S 18:00:14 63° W 18:04:33 10° NNW
Meteor 1-16 Rocket 4.3 17:57:20 10° S 18:03:16 87° E 18:09:09 10° N
CZ-4 R/B 1.3 18:02:35 10° SSE 18:06:27 60° ENE 18:10:25 10° N
YAOGAN 1 2.5 18:02:57 10° SSE 18:07:12 63° ENE 18:11:29 10° N
SL-16 R/B 3.0 18:03:49 10° SSE 18:08:30 27° ESE 18:08:50 27° E
Cosmos 2123 Rocket 4.1 18:02:41 10° N 18:08:51 51° E 18:14:57 10° SSE
DMSP B5D1-3 4.5 18:03:50 10° NNE 18:08:55 60° E 18:13:58 10° S
Okean-O 3.2 18:07:42 30° ESE 18:08:55 36° ENE 18:12:58 10° N
Cosmos 1703 3.1 18:06:07 10° N 18:10:04 79° E 18:13:57 10° S
GPS 2-04 Rocket1 4.0 18:07:00 10° WSW 18:10:14 27° SSW 18:11:45 20° SSE
DMSP B5D2-2 4.1 18:05:54 10° NNE 18:11:06 59° E 18:16:14 10° S
Cosmos 1455 Rocket 3.0 18:07:36 10° S 18:11:59 86° E 18:16:26 10° N
Spot 2 4.1 18:11:27 10° S 18:15:28 75° WSW 18:19:38 10° NNW
Cosmos 1953 3.0 18:12:13 10° SSW 18:16:11 56° W 18:20:11 10° N
Cosmos 2082 3.9 18:11:38 10° NNW 18:17:15 72° WSW 18:22:50 10° SSE
Tiangong 2.7 18:16:40 10° SSW 18:18:36 23° S 18:18:36 23° S
H-2A R/B 1.8 18:17:09 10° NNE 18:21:16 77° ESE 18:25:24 10° S
Okean 1-7 Rocket 3.6 18:19:12 10° N 18:23:31 54° E 18:24:34 43° SE
Cosmos 1328 3.7 18:20:33 10° N 18:24:32 62° E 18:25:11 53° SE
Cosmos 1544 Rocket 3.5 18:20:49 10° S 18:25:12 67° E 18:29:40 10° NNE
Cosmos 2322 Rocket 3.8 18:21:49 10° SSE 18:23:24 17° SSE 18:23:24 17° SSE
H-2A R/B 4.1 18:24:50 10° SSW 18:29:26 30° W 18:34:10 10° NW
Cosmos 1300 2.5 18:29:37 10° S 18:38:01 - N 18:33:11 76° SSE
ATLAS 3B R/B 4.3 18:28:26 10° WSW 18:34:07 30° NW 18:40:02 10° NNE
Cosmos 405 Rocket 3.3 18:35:48 10° NNW 18:39:40 58° W 18:42:45 16° S
ATLAS 5 CENTAUR R/B 2.3 18:40:11 10° SW 18:43:53 44° NW 18:45:39 27° N
NOSS 3-1 (C) 3.3 18:43:35 10° SSW 18:47:41 50° SSE 18:47:41 50° SSE
SL-8 R/B 3.7 18:48:49 10° WSW 18:53:36 76° NNW 18:53:45 75° N
IRS-1C Rocket 4.4 18:49:17 10° S 18:54:26 65° WSW 18:59:41 10° NNW
Cosmos 2227 4.1 18:49:00 10° NNW 18:54:46 71° ENE 18:55:05 70° E
Cosmos 1605 Rocket 3.9 18:49:23 10° S 18:55:35 86° E 19:01:56 10° N
Cosmos 1980 Rocket 4.1 19:00:55 10° WSW 19:05:42 28° NW 19:10:31 10° N
CSL-04 Debris 4.4 19:08:41 47° SSW 19:10:08 66° WSW 19:15:31 10° NNW
X-37B 3.7 19:07:18 10° WNW 19:08:08 16° WNW 19:08:08 16° WNW
Cosmos 2263 Rocket 2.4 19:06:35 10° NNW 19:12:06 65° WSW 19:12:47 59° SSW
Cosmos 1269 Rocket 4.5 19:08:45 10° NNW 19:13:57 58° WSW 19:14:31 55° SW
CSL-04 Rocket 4.5 19:30:11 45° SW 19:30:56 48° W 19:36:18 10° NNW
Gbstr 26 Del rocket 4.4 19:36:49 10° NW 19:43:59 80° WNW 19:43:59 80° WNW
SL-16 R/B 3.6 19:47:02 10° SW 19:50:51 34° W 19:50:51 34° W
Cosmos 2344 4.3 20:06:19 10° NW 20:15:56 89° WNW 20:15:56 89° WNW
